User: anonymous
Location: Unspecified
(0.0000°N, 0.0000°E)
Time: 14:05:18
(UTC+00:00)
Language:

FALCON 9 R/B - Orbit

View from above orbital plane
View from above orbital plane
View from above satellite
View from above satellite

Ground track
Ground track

The orbit data is extracted from the following two-line orbital elements,

1 37253U 10066K   14243.96978197  .00009611  00000-0  10633-2 0  1638
2 37253 034.5140 057.0937 4355317 175.0527 191.4004 06.74977384 90671
Epoch (UTC): 31 August 2014 23:16:29
Eccentricity: 0.4355317
inclination: 34.5140°
perigee height: 298 km
apogee height: 10600 km
right ascension of ascending node: 57.0937°
argument of perigee: 175.0527°
revolutions per day: 6.74977384
mean anomaly at epoch: 191.4004°
orbit number at epoch: 9067

The dashed part of the orbit path shows where the satellite is in the earth's shadow,  

DLR